contact:dominique.lefevre@mio.osupytheas.fr, maurice.libes@osupytheas.fr, didier.mallarino@osupytheas.fr
Project:EMSO http://www.emso-fr.org/EMSO-France
Depth: 2436.0 m
Title:EMSO Ligure Ouest : Data MII capteur MICROCAT
DateTime_Computer,Latitude,Longitude,Temperature,Conductivity,Pressure,DateTime_Instrument
DateTime_Computer,Latitude,Longitude,degC,S m-1,dbar,DateTime_Instrument
2022-08-13T00:02:08Z,42.805,6.029,13.3011,4.60050,2470.591,2022-8-13T02:03:57Z
2022-08-13T00:05:11Z,42.805,6.029,13.3007,4.60049,2470.553,2022-8-13T02:07:00Z
2022-08-13T00:08:14Z,42.805,6.029,13.3013,4.60049,2470.577,2022-8-13T02:10:03Z
2022-08-13T00:11:17Z,42.805,6.029,13.3011,4.60049,2470.567,2022-8-13T02:13:06Z
2022-08-13T00:14:21Z,42.805,6.029,13.3010,4.60047,2470.553,2022-8-13T02:16:10Z
2022-08-13T00:17:24Z,42.805,6.029,13.3010,4.60047,2470.53,2022-8-13T02:19:13Z
2022-08-13T00:20:27Z,42.805,6.029,13.3011,4.60049,2470.567,2022-8-13T02:22:16Z
2022-08-13T00:23:30Z,42.805,6.029,13.3013,4.60048,2470.53,2022-8-13T02:25:19Z
2022-08-13T00:26:33Z,42.805,6.029,13.3011,4.60047,2470.53,2022-8-13T02:28:22Z
2022-08-13T00:29:36Z,42.805,6.029,13.3011,4.60051,2470.53,2022-8-13T02:31:25Z
2022-08-13T00:32:39Z,42.805,6.029,13.3013,4.60057,2470.577,2022-8-13T02:34:28Z
2022-08-13T00:35:42Z,42.805,6.029,13.3010,4.60049,2470.553,2022-8-13T02:37:31Z
2022-08-13T00:38:46Z,42.805,6.029,13.3011,4.60048,2470.507,2022-8-13T02:40:35Z
2022-08-13T00:41:49Z,42.805,6.029,13.3010,4.60047,2470.553,2022-8-13T02:43:38Z
2022-08-13T00:44:52Z,42.805,6.029,13.3008,4.60048,2470.567,2022-8-13T02:46:41Z
2022-08-13T00:47:55Z,42.805,6.029,13.3009,4.60050,2470.53,2022-8-13T02:49:44Z
2022-08-13T00:50:58Z,42.805,6.029,13.3013,4.60048,2470.507,2022-8-13T02:52:47Z
2022-08-13T00:54:01Z,42.805,6.029,13.3009,4.60049,2470.553,2022-8-13T02:55:50Z
2022-08-13T00:57:04Z,42.805,6.029,13.3012,4.60049,2470.507,2022-8-13T02:58:53Z
2022-08-13T01:00:07Z,42.805,6.029,13.3007,4.60046,2470.483,2022-8-13T03:01:56Z
2022-08-13T01:03:10Z,42.805,6.029,13.3014,4.60046,2470.507,2022-8-13T03:05:00Z
2022-08-13T01:06:14Z,42.805,6.029,13.3011,4.60046,2470.53,2022-8-13T03:08:03Z
2022-08-13T01:09:17Z,42.805,6.029,13.3007,4.60049,2470.507,2022-8-13T03:11:06Z
2022-08-13T01:12:20Z,42.805,6.029,13.3009,4.60050,2470.507,2022-8-13T03:14:09Z
2022-08-13T01:15:23Z,42.805,6.029,13.3015,4.60050,2470.53,2022-8-13T03:17:12Z
2022-08-13T01:18:26Z,42.805,6.029,13.3014,4.60049,2470.52,2022-8-13T03:20:15Z
2022-08-13T01:21:29Z,42.805,6.029,13.3013,4.60049,2470.497,2022-8-13T03:23:18Z
2022-08-13T01:24:32Z,42.805,6.029,13.3011,4.60046,2470.52,2022-8-13T03:26:21Z
2022-08-13T01:27:35Z,42.805,6.029,13.3013,4.60046,2470.483,2022-8-13T03:29:24Z
2022-08-13T01:30:39Z,42.805,6.029,13.3012,4.60046,2470.53,2022-8-13T03:32:28Z
2022-08-13T01:33:42Z,42.805,6.029,13.3009,4.60049,2470.544,2022-8-13T03:35:31Z
2022-08-13T01:36:45Z,42.805,6.029,13.3012,4.60046,2470.507,2022-8-13T03:38:34Z
2022-08-13T01:39:48Z,42.805,6.029,13.3009,4.60047,2470.483,2022-8-13T03:41:37Z
2022-08-13T01:45:54Z,42.805,6.029,13.3010,4.60049,2470.47,2022-8-13T03:47:43Z
2022-08-13T01:48:57Z,42.805,6.029,13.3009,4.60046,2470.483,2022-8-13T03:50:46Z
2022-08-13T01:52:00Z,42.805,6.029,13.3010,4.60049,2470.52,2022-8-13T03:53:49Z
2022-08-13T01:55:03Z,42.805,6.029,13.3010,4.60046,2470.507,2022-8-13T03:56:52Z
2022-08-13T01:58:06Z,42.805,6.029,13.3010,4.60046,2470.497,2022-8-13T03:59:56Z
2022-08-13T02:01:10Z,42.805,6.029,13.3011,4.60046,2470.46,2022-8-13T04:02:59Z
2022-08-13T02:04:13Z,42.805,6.029,13.3013,4.60049,2470.497,2022-8-13T04:06:02Z
2022-08-13T02:07:16Z,42.805,6.029,13.3011,4.60050,2470.46,2022-8-13T04:09:05Z
2022-08-13T02:10:19Z,42.805,6.029,13.3012,4.60047,2470.45,2022-8-13T04:12:08Z
2022-08-13T02:13:22Z,42.805,6.029,13.3007,4.60049,2470.507,2022-8-13T04:15:11Z
2022-08-13T02:16:25Z,42.805,6.029,13.3011,4.60049,2470.483,2022-8-13T04:18:14Z
2022-08-13T02:19:28Z,42.805,6.029,13.3011,4.60047,2470.483,2022-8-13T04:21:17Z
2022-08-13T02:22:31Z,42.805,6.029,13.3014,4.60047,2470.474,2022-8-13T04:24:20Z
2022-08-13T02:25:35Z,42.805,6.029,13.3011,4.60050,2470.483,2022-8-13T04:27:24Z
2022-08-13T02:28:38Z,42.805,6.029,13.3013,4.60046,2470.483,2022-8-13T04:30:27Z
2022-08-13T02:31:41Z,42.805,6.029,13.3009,4.60051,2470.507,2022-8-13T04:33:30Z
2022-08-13T02:34:44Z,42.805,6.029,13.3013,4.60047,2470.45,2022-8-13T04:36:33Z
2022-08-13T02:37:47Z,42.805,6.029,13.3011,4.60047,2470.474,2022-8-13T04:39:36Z
2022-08-13T02:40:50Z,42.805,6.029,13.3011,4.60047,2470.46,2022-8-13T04:42:39Z
2022-08-13T02:43:53Z,42.805,6.029,13.3012,4.60052,2470.437,2022-8-13T04:45:42Z
2022-08-13T02:46:56Z,42.805,6.029,13.3014,4.60048,2470.46,2022-8-13T04:48:45Z
2022-08-13T02:50:00Z,42.805,6.029,13.3009,4.60046,2470.497,2022-8-13T04:51:49Z
2022-08-13T02:53:03Z,42.805,6.029,13.3011,4.60049,2470.497,2022-8-13T04:54:52Z
2022-08-13T02:56:06Z,42.805,6.029,13.3011,4.60046,2470.483,2022-8-13T04:57:55Z
2022-08-13T02:59:09Z,42.805,6.029,13.3014,4.60046,2470.483,2022-8-13T05:00:58Z
2022-08-13T03:02:12Z,42.805,6.029,13.3011,4.60046,2470.45,2022-8-13T05:04:01Z
2022-08-13T03:05:15Z,42.805,6.029,13.3012,4.60046,2470.46,2022-8-13T05:07:04Z
2022-08-13T03:08:18Z,42.805,6.029,13.3014,4.60046,2470.507,2022-8-13T05:10:07Z
2022-08-13T03:11:21Z,42.805,6.029,13.3011,4.60047,2470.437,2022-8-13T05:13:10Z
2022-08-13T03:14:24Z,42.805,6.029,13.3013,4.60047,2470.437,2022-8-13T05:16:14Z
2022-08-13T03:17:28Z,42.805,6.029,13.3012,4.60047,2470.437,2022-8-13T05:19:17Z
2022-08-13T03:20:31Z,42.805,6.029,13.3010,4.60047,2470.46,2022-8-13T05:22:20Z
2022-08-13T03:23:34Z,42.805,6.029,13.3012,4.60048,2470.46,2022-8-13T05:25:23Z
2022-08-13T03:26:37Z,42.805,6.029,13.3011,4.60047,2470.46,2022-8-13T05:28:26Z
2022-08-13T03:29:40Z,42.805,6.029,13.3010,4.60046,2470.46,2022-8-13T05:31:29Z
2022-08-13T03:32:43Z,42.805,6.029,13.3009,4.60046,2470.46,2022-8-13T05:34:32Z
2022-08-13T03:35:46Z,42.805,6.029,13.3011,4.60048,2470.474,2022-8-13T05:37:35Z
2022-08-13T03:38:50Z,42.805,6.029,13.3015,4.60047,2470.437,2022-8-13T05:40:39Z
2022-08-13T03:41:53Z,42.805,6.029,13.3011,4.60046,2470.483,2022-8-13T05:43:42Z
2022-08-13T03:44:56Z,42.805,6.029,13.3007,4.60045,2470.45,2022-8-13T05:46:45Z
2022-08-13T03:47:59Z,42.805,6.029,13.3012,4.60049,2470.437,2022-8-13T05:49:48Z
2022-08-13T03:51:02Z,42.805,6.029,13.3011,4.60047,2470.45,2022-8-13T05:52:51Z
2022-08-13T03:54:05Z,42.805,6.029,13.3010,4.60047,2470.483,2022-8-13T05:55:54Z
2022-08-13T03:57:08Z,42.805,6.029,13.3009,4.60049,2470.52,2022-8-13T05:58:57Z
2022-08-13T04:00:11Z,42.805,6.029,13.3008,4.60045,2470.52,2022-8-13T06:02:00Z
2022-08-13T04:03:14Z,42.805,6.029,13.3011,4.60046,2470.46,2022-8-13T06:05:04Z
2022-08-13T04:06:18Z,42.805,6.029,13.3009,4.60046,2470.45,2022-8-13T06:08:07Z
2022-08-13T04:09:21Z,42.805,6.029,13.3009,4.60049,2470.474,2022-8-13T06:11:10Z
2022-08-13T04:12:24Z,42.805,6.029,13.3011,4.60046,2470.474,2022-8-13T06:14:13Z
2022-08-13T04:15:27Z,42.805,6.029,13.3012,4.60046,2470.483,2022-8-13T06:17:16Z
2022-08-13T04:18:30Z,42.805,6.029,13.3009,4.60046,2470.497,2022-8-13T06:20:19Z
2022-08-13T04:21:33Z,42.805,6.029,13.3009,4.60046,2470.483,2022-8-13T06:23:22Z
2022-08-13T04:24:36Z,42.805,6.029,13.3010,4.60047,2470.483,2022-8-13T06:26:25Z
2022-08-13T04:27:39Z,42.805,6.029,13.3011,4.60046,2470.446,2022-8-13T06:29:29Z
2022-08-13T04:30:43Z,42.805,6.029,13.3009,4.60046,2470.483,2022-8-13T06:32:32Z
2022-08-13T04:33:46Z,42.805,6.029,13.3009,4.60046,2470.46,2022-8-13T06:35:35Z
2022-08-13T04:36:49Z,42.805,6.029,13.3009,4.60046,2470.483,2022-8-13T06:38:38Z
2022-08-13T04:39:52Z,42.805,6.029,13.3007,4.60046,2470.483,2022-8-13T06:41:41Z
2022-08-13T04:42:55Z,42.805,6.029,13.3010,4.60049,2470.507,2022-8-13T06:44:44Z
2022-08-13T04:45:58Z,42.805,6.029,13.3014,4.60049,2470.483,2022-8-13T06:47:47Z
2022-08-13T04:49:01Z,42.805,6.029,13.3008,4.60046,2470.483,2022-8-13T06:50:50Z
2022-08-13T04:52:04Z,42.805,6.029,13.3009,4.60046,2470.483,2022-8-13T06:53:54Z
2022-08-13T04:55:08Z,42.805,6.029,13.3006,4.60047,2470.507,2022-8-13T06:56:57Z
2022-08-13T04:58:11Z,42.805,6.029,13.3010,4.60046,2470.53,2022-8-13T07:00:00Z
2022-08-13T05:01:14Z,42.805,6.029,13.3012,4.60045,2470.507,2022-8-13T07:03:03Z
2022-08-13T05:04:17Z,42.805,6.029,13.3011,4.60044,2470.53,2022-8-13T07:06:06Z
2022-08-13T05:07:20Z,42.805,6.029,13.3009,4.60046,2470.507,2022-8-13T07:09:09Z
2022-08-13T05:10:23Z,42.805,6.029,13.3009,4.60047,2470.544,2022-8-13T07:12:12Z
2022-08-13T05:13:26Z,42.805,6.029,13.3011,4.60045,2470.53,2022-8-13T07:15:15Z
2022-08-13T05:16:29Z,42.805,6.029,13.3008,4.60048,2470.52,2022-8-13T07:18:18Z
2022-08-13T05:19:33Z,42.805,6.029,13.3009,4.60046,2470.507,2022-8-13T07:21:22Z
2022-08-13T05:22:36Z,42.805,6.029,13.3014,4.60046,2470.544,2022-8-13T07:24:25Z
2022-08-13T05:25:39Z,42.805,6.029,13.3008,4.60046,2470.53,2022-8-13T07:27:28Z
2022-08-13T05:28:42Z,42.805,6.029,13.3011,4.60047,2470.553,2022-8-13T07:30:31Z
2022-08-13T05:31:45Z,42.805,6.029,13.3013,4.60049,2470.544,2022-8-13T07:33:34Z
2022-08-13T05:34:48Z,42.805,6.029,13.3009,4.60046,2470.553,2022-8-13T07:36:37Z
2022-08-13T05:37:51Z,42.805,6.029,13.3010,4.60045,2470.567,2022-8-13T07:39:40Z
2022-08-13T05:40:54Z,42.805,6.029,13.3009,4.60045,2470.567,2022-8-13T07:42:43Z
2022-08-13T05:43:57Z,42.805,6.029,13.3011,4.60046,2470.567,2022-8-13T07:45:47Z
2022-08-13T05:47:01Z,42.805,6.029,13.3008,4.60046,2470.53,2022-8-13T07:48:50Z
2022-08-13T05:50:04Z,42.805,6.029,13.3011,4.60046,2470.553,2022-8-13T07:51:53Z
2022-08-13T05:53:07Z,42.805,6.029,13.3010,4.60047,2470.591,2022-8-13T07:54:56Z
2022-08-13T05:56:10Z,42.805,6.029,13.3006,4.60046,2470.577,2022-8-13T07:57:59Z
2022-08-13T05:59:13Z,42.805,6.029,13.3007,4.60046,2470.553,2022-8-13T08:01:02Z
2022-08-13T06:02:16Z,42.805,6.029,13.3010,4.60045,2470.567,2022-8-13T08:04:05Z
2022-08-13T06:05:19Z,42.805,6.029,13.3008,4.60046,2470.577,2022-8-13T08:07:08Z
2022-08-13T06:08:22Z,42.805,6.029,13.3012,4.60044,2470.577,2022-8-13T08:10:11Z
2022-08-13T06:11:26Z,42.805,6.029,13.3010,4.60047,2470.553,2022-8-13T08:13:15Z
2022-08-13T06:14:29Z,42.805,6.029,13.3008,4.60046,2470.577,2022-8-13T08:16:18Z
2022-08-13T06:17:32Z,42.805,6.029,13.3009,4.60047,2470.553,2022-8-13T08:19:21Z
2022-08-13T06:20:35Z,42.805,6.029,13.3014,4.60054,2470.553,2022-8-13T08:22:24Z
2022-08-13T06:23:38Z,42.805,6.029,13.3011,4.60046,2470.591,2022-8-13T08:25:27Z
2022-08-13T06:26:41Z,42.805,6.029,13.3009,4.60046,2470.6,2022-8-13T08:28:30Z
2022-08-13T06:29:44Z,42.805,6.029,13.3012,4.60047,2470.6,2022-8-13T08:31:33Z
2022-08-13T06:32:47Z,42.805,6.029,13.3010,4.60046,2470.637,2022-8-13T08:34:36Z
2022-08-13T06:35:50Z,42.805,6.029,13.3006,4.60046,2470.6,2022-8-13T08:37:40Z
2022-08-13T06:38:54Z,42.805,6.029,13.3008,4.60047,2470.637,2022-8-13T08:40:43Z
2022-08-13T06:41:57Z,42.805,6.029,13.3011,4.60046,2470.614,2022-8-13T08:43:46Z
2022-08-13T06:45:00Z,42.805,6.029,13.3009,4.60047,2470.614,2022-8-13T08:46:49Z
2022-08-13T06:48:03Z,42.805,6.029,13.3012,4.60049,2470.624,2022-8-13T08:49:52Z
2022-08-13T06:51:06Z,42.805,6.029,13.3012,4.60046,2470.577,2022-8-13T08:52:55Z
2022-08-13T06:54:09Z,42.805,6.029,13.3009,4.60045,2470.624,2022-8-13T08:55:58Z
2022-08-13T06:57:12Z,42.805,6.029,13.3008,4.60048,2470.624,2022-8-13T08:59:01Z
2022-08-13T07:00:16Z,42.805,6.029,13.3011,4.60049,2470.646,2022-8-13T09:02:05Z
2022-08-13T07:03:19Z,42.805,6.029,13.3009,4.60051,2470.586,2022-8-13T09:05:08Z
2022-08-13T07:06:22Z,42.805,6.029,13.3010,4.60046,2470.624,2022-8-13T09:08:11Z
2022-08-13T07:09:25Z,42.805,6.029,13.3008,4.60046,2470.614,2022-8-13T09:11:14Z
2022-08-13T07:12:28Z,42.805,6.029,13.3007,4.60046,2470.624,2022-8-13T09:14:17Z
2022-08-13T07:15:31Z,42.805,6.029,13.3010,4.60046,2470.6,2022-8-13T09:17:20Z
2022-08-13T07:18:34Z,42.805,6.029,13.3009,4.60046,2470.646,2022-8-13T09:20:23Z
2022-08-13T07:21:37Z,42.805,6.029,13.3009,4.60046,2470.624,2022-8-13T09:23:26Z
2022-08-13T07:24:40Z,42.805,6.029,13.3010,4.60045,2470.624,2022-8-13T09:26:30Z
2022-08-13T07:27:44Z,42.805,6.029,13.3009,4.60046,2470.614,2022-8-13T09:29:33Z
2022-08-13T07:30:47Z,42.805,6.029,13.3012,4.60046,2470.614,2022-8-13T09:32:36Z
2022-08-13T07:33:50Z,42.805,6.029,13.3009,4.60047,2470.614,2022-8-13T09:35:39Z
2022-08-13T07:36:53Z,42.805,6.029,13.3012,4.60046,2470.624,2022-8-13T09:38:42Z
2022-08-13T07:39:56Z,42.805,6.029,13.3015,4.60046,2470.646,2022-8-13T09:41:45Z
2022-08-13T07:42:59Z,42.805,6.029,13.3009,4.60047,2470.6,2022-8-13T09:44:48Z
2022-08-13T07:46:02Z,42.805,6.029,13.3009,4.60046,2470.614,2022-8-13T09:47:51Z
2022-08-13T07:49:05Z,42.805,6.029,13.3011,4.60046,2470.614,2022-8-13T09:50:55Z
2022-08-13T07:52:09Z,42.805,6.029,13.3011,4.60046,2470.6,2022-8-13T09:53:58Z
2022-08-13T07:55:12Z,42.805,6.029,13.3010,4.60048,2470.624,2022-8-13T09:57:01Z
2022-08-13T07:58:15Z,42.805,6.029,13.3011,4.60047,2470.624,2022-8-13T10:00:04Z
2022-08-13T08:01:18Z,42.805,6.029,13.3008,4.60046,2470.6,2022-8-13T10:03:07Z
2022-08-13T08:04:21Z,42.805,6.029,13.3013,4.60049,2470.591,2022-8-13T10:06:10Z
2022-08-13T08:07:24Z,42.805,6.029,13.3012,4.60049,2470.637,2022-8-13T10:09:13Z
2022-08-13T08:10:27Z,42.805,6.029,13.3009,4.60048,2470.6,2022-8-13T10:12:16Z
2022-08-13T08:13:30Z,42.805,6.029,13.3012,4.60046,2470.6,2022-8-13T10:15:20Z
2022-08-13T08:16:34Z,42.805,6.029,13.3009,4.60046,2470.614,2022-8-13T10:18:23Z
2022-08-13T08:19:37Z,42.805,6.029,13.3011,4.60045,2470.637,2022-8-13T10:21:26Z
2022-08-13T08:22:40Z,42.805,6.029,13.3012,4.60045,2470.614,2022-8-13T10:24:29Z
2022-08-13T08:25:43Z,42.805,6.029,13.3016,4.60046,2470.624,2022-8-13T10:27:32Z
2022-08-13T08:28:46Z,42.805,6.029,13.3012,4.60046,2470.637,2022-8-13T10:30:35Z
2022-08-13T08:31:49Z,42.805,6.029,13.3014,4.60049,2470.6,2022-8-13T10:33:38Z
2022-08-13T08:34:52Z,42.805,6.029,13.3009,4.60046,2470.6,2022-8-13T10:36:41Z
2022-08-13T08:37:55Z,42.805,6.029,13.3010,4.60049,2470.6,2022-8-13T10:39:45Z
2022-08-13T08:40:59Z,42.805,6.029,13.3013,4.60048,2470.6,2022-8-13T10:42:48Z
2022-08-13T08:44:02Z,42.805,6.029,13.3006,4.60049,2470.637,2022-8-13T10:45:51Z
2022-08-13T08:47:05Z,42.805,6.029,13.3011,4.60045,2470.577,2022-8-13T10:48:54Z
2022-08-13T08:50:08Z,42.805,6.029,13.3014,4.60046,2470.6,2022-8-13T10:51:57Z
2022-08-13T08:53:11Z,42.805,6.029,13.3014,4.60048,2470.6,2022-8-13T10:55:00Z
2022-08-13T08:56:14Z,42.805,6.029,13.3011,4.60051,2470.6,2022-8-13T10:58:03Z
2022-08-13T08:59:17Z,42.805,6.029,13.3008,4.60046,2470.6,2022-8-13T11:01:06Z
2022-08-13T09:02:20Z,42.805,6.029,13.3011,4.60045,2470.577,2022-8-13T11:04:10Z
2022-08-13T09:05:24Z,42.805,6.029,13.3013,4.60049,2470.6,2022-8-13T11:07:13Z
2022-08-13T09:08:27Z,42.805,6.029,13.3011,4.60046,2470.614,2022-8-13T11:10:16Z
2022-08-13T09:11:30Z,42.805,6.029,13.3009,4.60046,2470.577,2022-8-13T11:13:19Z
2022-08-13T09:14:33Z,42.805,6.029,13.3008,4.60045,2470.591,2022-8-13T11:16:22Z
2022-08-13T09:17:36Z,42.805,6.029,13.3011,4.60046,2470.6,2022-8-13T11:19:25Z
2022-08-13T09:20:39Z,42.805,6.029,13.3008,4.60052,2470.614,2022-8-13T11:22:28Z
2022-08-13T09:23:42Z,42.805,6.029,13.3013,4.60052,2470.577,2022-8-13T11:25:31Z
2022-08-13T09:26:45Z,42.805,6.029,13.3009,4.60046,2470.577,2022-8-13T11:28:35Z
2022-08-13T09:29:49Z,42.805,6.029,13.3011,4.60046,2470.577,2022-8-13T11:31:38Z
2022-08-13T09:32:52Z,42.805,6.029,13.3014,4.60050,2470.6,2022-8-13T11:34:41Z
2022-08-13T09:35:55Z,42.805,6.029,13.3014,4.60046,2470.53,2022-8-13T11:37:44Z
2022-08-13T09:38:58Z,42.805,6.029,13.3013,4.60046,2470.591,2022-8-13T11:40:47Z
2022-08-13T09:42:01Z,42.805,6.029,13.3015,4.60046,2470.577,2022-8-13T11:43:50Z
2022-08-13T09:45:04Z,42.805,6.029,13.3014,4.60045,2470.6,2022-8-13T11:46:53Z
2022-08-13T09:48:07Z,42.805,6.029,13.3012,4.60046,2470.553,2022-8-13T11:49:56Z
2022-08-13T09:51:10Z,42.805,6.029,13.3011,4.60049,2470.577,2022-8-13T11:53:00Z
2022-08-13T09:54:14Z,42.805,6.029,13.3019,4.60046,2470.553,2022-8-13T11:56:03Z
2022-08-13T09:57:17Z,42.805,6.029,13.3011,4.60046,2470.567,2022-8-13T11:59:06Z
2022-08-13T10:00:20Z,42.805,6.029,13.3009,4.60046,2470.567,2022-8-13T12:02:09Z
2022-08-13T10:03:23Z,42.805,6.029,13.3006,4.60046,2470.553,2022-8-13T12:05:12Z
2022-08-13T10:06:26Z,42.805,6.029,13.3009,4.60044,2470.567,2022-8-13T12:08:15Z
2022-08-13T10:09:29Z,42.805,6.029,13.3011,4.60046,2470.553,2022-8-13T12:11:18Z
2022-08-13T10:12:32Z,42.805,6.029,13.3009,4.60046,2470.553,2022-8-13T12:14:21Z
2022-08-13T10:15:36Z,42.805,6.029,13.3012,4.60045,2470.553,2022-8-13T12:17:25Z
2022-08-13T10:18:39Z,42.805,6.029,13.3011,4.60047,2470.553,2022-8-13T12:20:28Z
2022-08-13T10:21:42Z,42.805,6.029,13.3014,4.60045,2470.553,2022-8-13T12:23:31Z
2022-08-13T10:24:45Z,42.805,6.029,13.3009,4.60049,2470.516,2022-8-13T12:26:34Z
2022-08-13T10:27:48Z,42.805,6.029,13.3007,4.60051,2470.53,2022-8-13T12:29:37Z
2022-08-13T10:30:51Z,42.805,6.029,13.3011,4.60046,2470.544,2022-8-13T12:32:40Z
2022-08-13T10:33:54Z,42.805,6.029,13.3012,4.60049,2470.553,2022-8-13T12:35:43Z
2022-08-13T10:36:57Z,42.805,6.029,13.3011,4.60049,2470.507,2022-8-13T12:38:46Z
2022-08-13T10:40:01Z,42.805,6.029,13.3010,4.60046,2470.507,2022-8-13T12:41:50Z
2022-08-13T10:43:04Z,42.805,6.029,13.3011,4.60045,2470.507,2022-8-13T12:44:53Z
2022-08-13T10:46:07Z,42.805,6.029,13.3011,4.60049,2470.52,2022-8-13T12:47:56Z
2022-08-13T10:49:10Z,42.805,6.029,13.3009,4.60045,2470.507,2022-8-13T12:50:59Z
2022-08-13T10:52:13Z,42.805,6.029,13.3012,4.60046,2470.507,2022-8-13T12:54:02Z
2022-08-13T10:55:16Z,42.805,6.029,13.3008,4.60049,2470.52,2022-8-13T12:57:05Z
2022-08-13T10:58:19Z,42.805,6.029,13.3011,4.60046,2470.507,2022-8-13T13:00:08Z
2022-08-13T11:01:22Z,42.805,6.029,13.3008,4.60046,2470.52,2022-8-13T13:03:11Z
2022-08-13T11:04:26Z,42.805,6.029,13.3009,4.60047,2470.483,2022-8-13T13:06:15Z
2022-08-13T11:07:29Z,42.805,6.029,13.3010,4.60050,2470.52,2022-8-13T13:09:18Z
2022-08-13T11:10:32Z,42.805,6.029,13.3007,4.60049,2470.483,2022-8-13T13:12:21Z
2022-08-13T11:13:35Z,42.805,6.029,13.3015,4.60047,2470.483,2022-8-13T13:15:24Z
2022-08-13T11:16:38Z,42.805,6.029,13.3009,4.60052,2470.53,2022-8-13T13:18:27Z
2022-08-13T11:19:41Z,42.805,6.029,13.3012,4.60047,2470.483,2022-8-13T13:21:30Z
2022-08-13T11:22:44Z,42.805,6.029,13.3009,4.60047,2470.52,2022-8-13T13:24:33Z
2022-08-13T11:25:47Z,42.805,6.029,13.3012,4.60052,2470.507,2022-8-13T13:27:37Z
2022-08-13T11:28:51Z,42.805,6.029,13.3012,4.60050,2470.52,2022-8-13T13:30:40Z
2022-08-13T11:31:54Z,42.805,6.029,13.3011,4.60048,2470.507,2022-8-13T13:33:43Z
2022-08-13T11:34:57Z,42.805,6.029,13.3012,4.60048,2470.497,2022-8-13T13:36:46Z
2022-08-13T11:38:00Z,42.805,6.029,13.3010,4.60051,2470.46,2022-8-13T13:39:49Z
2022-08-13T11:41:03Z,42.805,6.029,13.3011,4.60049,2470.483,2022-8-13T13:42:52Z
2022-08-13T11:44:06Z,42.805,6.029,13.3010,4.60046,2470.46,2022-8-13T13:45:55Z
2022-08-13T11:47:09Z,42.805,6.029,13.3014,4.60048,2470.483,2022-8-13T13:48:58Z
2022-08-13T11:50:12Z,42.805,6.029,13.3014,4.60047,2470.46,2022-8-13T13:52:02Z
2022-08-13T11:53:16Z,42.805,6.029,13.3011,4.60049,2470.474,2022-8-13T13:55:05Z
2022-08-13T11:56:19Z,42.805,6.029,13.3011,4.60046,2470.483,2022-8-13T13:58:08Z
2022-08-13T11:59:22Z,42.805,6.029,13.3013,4.60049,2470.46,2022-8-13T14:01:11Z
2022-08-13T12:02:25Z,42.805,6.029,13.3009,4.60048,2470.474,2022-8-13T14:04:14Z
2022-08-13T12:05:28Z,42.805,6.029,13.3010,4.60046,2470.497,2022-8-13T14:07:17Z
2022-08-13T12:08:31Z,42.805,6.029,13.3010,4.60046,2470.474,2022-8-13T14:10:20Z
2022-08-13T12:11:34Z,42.805,6.029,13.3006,4.60051,2470.46,2022-8-13T14:13:23Z
2022-08-13T12:14:37Z,42.805,6.029,13.3012,4.60049,2470.46,2022-8-13T14:16:27Z
2022-08-13T12:17:41Z,42.805,6.029,13.3011,4.60049,2470.46,2022-8-13T14:19:30Z
2022-08-13T12:20:44Z,42.805,6.029,13.3013,4.60049,2470.46,2022-8-13T14:22:33Z
2022-08-13T12:23:47Z,42.805,6.029,13.3011,4.60046,2470.45,2022-8-13T14:25:36Z
2022-08-13T12:26:50Z,42.805,6.029,13.3010,4.60049,2470.46,2022-8-13T14:28:39Z
2022-08-13T12:29:53Z,42.805,6.029,13.3009,4.60046,2470.474,2022-8-13T14:31:42Z
2022-08-13T12:32:56Z,42.805,6.029,13.3014,4.60046,2470.437,2022-8-13T14:34:45Z
2022-08-13T12:35:59Z,42.805,6.029,13.3009,4.60049,2470.46,2022-8-13T14:37:48Z
2022-08-13T12:39:02Z,42.805,6.029,13.3010,4.60047,2470.46,2022-8-13T14:40:52Z
2022-08-13T12:42:06Z,42.805,6.029,13.3009,4.60048,2470.437,2022-8-13T14:43:55Z
2022-08-13T12:45:09Z,42.805,6.029,13.3014,4.60046,2470.45,2022-8-13T14:46:58Z
2022-08-13T12:48:12Z,42.805,6.029,13.3011,4.60050,2470.437,2022-8-13T14:50:01Z
2022-08-13T12:51:15Z,42.805,6.029,13.3009,4.60047,2470.474,2022-8-13T14:53:04Z
2022-08-13T12:54:18Z,42.805,6.029,13.3010,4.60045,2470.437,2022-8-13T14:56:07Z
2022-08-13T12:57:21Z,42.805,6.029,13.3007,4.60049,2470.45,2022-8-13T14:59:10Z
2022-08-13T13:00:24Z,42.805,6.029,13.3010,4.60049,2470.413,2022-8-13T15:02:13Z
2022-08-13T13:03:27Z,42.805,6.029,13.3007,4.60049,2470.46,2022-8-13T15:05:17Z
2022-08-13T13:06:31Z,42.805,6.029,13.3011,4.60050,2470.437,2022-8-13T15:08:20Z
2022-08-13T13:09:34Z,42.805,6.029,13.3012,4.60047,2470.437,2022-8-13T15:11:23Z
2022-08-13T13:12:37Z,42.805,6.029,13.3010,4.60046,2470.45,2022-8-13T15:14:26Z
2022-08-13T13:15:40Z,42.805,6.029,13.3009,4.60044,2470.413,2022-8-13T15:17:29Z
2022-08-13T13:18:43Z,42.805,6.029,13.3013,4.60049,2470.437,2022-8-13T15:20:32Z
2022-08-13T13:21:46Z,42.805,6.029,13.3009,4.60046,2470.437,2022-8-13T15:23:35Z
2022-08-13T13:24:49Z,42.805,6.029,13.3007,4.60046,2470.437,2022-8-13T15:26:38Z
2022-08-13T13:27:52Z,42.805,6.029,13.3012,4.60046,2470.427,2022-8-13T15:29:42Z
2022-08-13T13:30:56Z,42.805,6.029,13.3008,4.60046,2470.39,2022-8-13T15:32:45Z
2022-08-13T13:33:59Z,42.805,6.029,13.3008,4.60045,2470.399,2022-8-13T15:35:48Z
2022-08-13T13:37:02Z,42.805,6.029,13.3010,4.60047,2470.437,2022-8-13T15:38:51Z
2022-08-13T13:40:05Z,42.805,6.029,13.3011,4.60046,2470.437,2022-8-13T15:41:54Z
2022-08-13T13:43:08Z,42.805,6.029,13.3006,4.60045,2470.39,2022-8-13T15:44:57Z
2022-08-13T13:46:11Z,42.805,6.029,13.3011,4.60046,2470.427,2022-8-13T15:48:00Z
2022-08-13T13:49:14Z,42.805,6.029,13.3012,4.60046,2470.437,2022-8-13T15:51:03Z
2022-08-13T13:52:17Z,42.805,6.029,13.3008,4.60046,2470.427,2022-8-13T15:54:07Z
2022-08-13T13:55:21Z,42.805,6.029,13.3010,4.60048,2470.39,2022-8-13T15:57:10Z
2022-08-13T13:58:24Z,42.805,6.029,13.3014,4.60045,2470.45,2022-8-13T16:00:13Z
2022-08-13T14:01:27Z,42.805,6.029,13.3009,4.60046,2470.413,2022-8-13T16:03:16Z
2022-08-13T14:04:30Z,42.805,6.029,13.3009,4.60047,2470.45,2022-8-13T16:06:19Z
2022-08-13T14:07:33Z,42.805,6.029,13.3006,4.60046,2470.413,2022-8-13T16:09:22Z
2022-08-13T14:10:36Z,42.805,6.029,13.3011,4.60047,2470.404,2022-8-13T16:12:25Z
2022-08-13T14:13:39Z,42.805,6.029,13.3011,4.60052,2470.437,2022-8-13T16:15:28Z
2022-08-13T14:16:42Z,42.805,6.029,13.3010,4.60046,2470.437,2022-8-13T16:18:32Z
2022-08-13T14:19:46Z,42.805,6.029,13.3011,4.60046,2470.413,2022-8-13T16:21:35Z
2022-08-13T14:22:49Z,42.805,6.029,13.3011,4.60046,2470.427,2022-8-13T16:24:38Z
2022-08-13T14:25:52Z,42.805,6.029,13.3009,4.60049,2470.427,2022-8-13T16:27:41Z
2022-08-13T14:28:55Z,42.805,6.029,13.3009,4.60047,2470.427,2022-8-13T16:30:44Z
2022-08-13T14:31:58Z,42.805,6.029,13.3013,4.60046,2470.413,2022-8-13T16:33:47Z
2022-08-13T14:35:01Z,42.805,6.029,13.3007,4.60049,2470.437,2022-8-13T16:36:50Z
2022-08-13T14:38:04Z,42.805,6.029,13.3009,4.60046,2470.39,2022-8-13T16:39:54Z
2022-08-13T14:41:08Z,42.805,6.029,13.3013,4.60045,2470.413,2022-8-13T16:42:57Z
2022-08-13T14:44:11Z,42.805,6.029,13.3014,4.60046,2470.39,2022-8-13T16:46:00Z
2022-08-13T14:47:14Z,42.805,6.029,13.3011,4.60046,2470.404,2022-8-13T16:49:03Z
2022-08-13T14:50:17Z,42.805,6.029,13.3015,4.60046,2470.413,2022-8-13T16:52:06Z
2022-08-13T14:53:20Z,42.805,6.029,13.3009,4.60051,2470.437,2022-8-13T16:55:09Z
2022-08-13T14:56:23Z,42.805,6.029,13.3010,4.60046,2470.39,2022-8-13T16:58:12Z
2022-08-13T14:59:26Z,42.805,6.029,13.3011,4.60049,2470.39,2022-8-13T17:01:15Z
2022-08-13T15:02:29Z,42.805,6.029,13.3011,4.60045,2470.427,2022-8-13T17:04:18Z
2022-08-13T15:05:32Z,42.805,6.029,13.3009,4.60046,2470.427,2022-8-13T17:07:22Z
2022-08-13T15:08:36Z,42.805,6.029,13.3013,4.60049,2470.399,2022-8-13T17:10:25Z
2022-08-13T15:11:39Z,42.805,6.029,13.3009,4.60047,2470.39,2022-8-13T17:13:28Z
2022-08-13T15:14:42Z,42.805,6.029,13.3011,4.60049,2470.413,2022-8-13T17:16:31Z
2022-08-13T15:17:45Z,42.805,6.029,13.3012,4.60046,2470.45,2022-8-13T17:19:34Z